Location: Colonie
(42.7179°N, 73.8335°W)
Time: 04:46:35
(UTC+00:00)

Cosmos 1606 Rocket - Pass Details

Date: 29 October 2020
Orbit: 603 x 631 km, 82.5° (Epoch: 29 November)

Event Time Altitude Azimuth Distance (km) Brightness Sun altitude
Rises 22:29:34 0° 194° (SSW) 2,863 7.3 -7.6°
Reaches altitude 10° 22:31:47 10° 197° (SSW) 1,967 6.5 -8.0°
Maximum altitude 22:36:07 64° 280° (W) 686 4.1 -8.8°
Drops below altitude 10° 22:40:31 10° 2° (N) 2,000 6.1 -9.6°
Sets 22:42:47 0° 6° (N) 2,916 6.9 -10.0°
